Overview Statistics Trail Chart Weather Telemetry Raw packets
 

This is the latest recevied weather packets stored in our database for station/object 4S6DRJ-13. If no packets are shown the sender has not sent any weather packets the latest 10 day(s).

<< 300 301 302 303 304 305 306 >>
Time Temp. Humidity Pressure Rain* Wind** Luminosity Snow
1788025123 27.78° C 85% 1011.3 hPa 0 mm 0.45 m/s, 211° 0 W/m² -
1788025063 27.78° C 85% 1011.2 hPa 0 mm 0.89 m/s, 226° 0 W/m² -
1788025002 27.78° C 85% 1011.3 hPa 0 mm 0.45 m/s, 162° 0 W/m² -
1788024941 28.33° C 85% 1011.3 hPa 0 mm 0.89 m/s, 197° 0 W/m² -
1788024880 28.33° C 85% 1011.2 hPa 0 mm 0.89 m/s, 233° 0 W/m² -
1788024819 28.33° C 85% 1011.3 hPa 0 mm 1.79 m/s, 287° 0 W/m² -
1788024758 28.33° C 84% 1011.2 hPa 0 mm 0.89 m/s, 224° 0 W/m² -
1788024697 27.78° C 84% 1011.3 hPa 0 mm 0.45 m/s, 217° 0 W/m² -
1788024636 28.33° C 84% 1011.4 hPa 0 mm 0.89 m/s, 242° 0 W/m² -
1788024575 28.33° C 84% 1011.2 hPa 0 mm 0.89 m/s, 298° 0 W/m² -
1788024514 28.33° C 84% 1011.2 hPa 0 mm 0.89 m/s, 175° 0 W/m² -
1788024453 28.33° C 84% 1011.4 hPa 0 mm 0.45 m/s, 211° 0 W/m² -
1788024392 28.33° C 84% 1011.3 hPa 0 mm 0 m/s 0 W/m² -
1788024331 28.33° C 84% 1011.3 hPa 0 mm 0.89 m/s, 236° 0 W/m² -
1788024271 28.33° C 84% 1011.3 hPa 0 mm 1.34 m/s, 238° 0 W/m² -
1788024209 28.33° C 84% 1011.2 hPa 0 mm 0.45 m/s, 221° 0 W/m² -
1788024148 28.33° C 84% 1011.4 hPa 0 mm 0.45 m/s, 192° 0 W/m² -
1788024087 28.33° C 84% 1011.4 hPa 0 mm 0.45 m/s, 179° 0 W/m² -
1788024027 28.33° C 84% 1011.2 hPa 0 mm 1.34 m/s, 215° 0 W/m² -
1788023965 28.33° C 84% 1011.3 hPa 0 mm 0.45 m/s, 207° 0 W/m² -
1788023905 28.33° C 84% 1011.1 hPa 0 mm 0 m/s 0 W/m² -
1788023844 28.33° C 84% 1011.2 hPa 0 mm 0.89 m/s, 238° 0 W/m² -
1788023782 28.33° C 84% 1011.3 hPa 0 mm 0.45 m/s, 235° 0 W/m² -
1788023721 28.33° C 84% 1011.1 hPa 0 mm 1.34 m/s, 300° 0 W/m² -
1788023660 28.33° C 84% 1011.3 hPa 0 mm 0.45 m/s, 241° 0 W/m² -

* Rain latest hour (hover to see other rain measurements)
** Current wind speed in m/s (hover to see current wind gust speed)